[Date Prev][Date Next][Thread Prev][Thread Next] - [Date Index][Thread Index][Author Index]

2 Line ISS Keps 10-5



ISS 
1 25544U 98067A   04279.23750000  .00015941  00000-0  14134-3 0  8400
2 25544  51.6348 124.1401 0009639 186.7388 327.4349 15.68717620335602
----
Via the sarex mailing list at AMSAT.ORG courtesy of AMSAT-NA.
To unsubscribe, send "unsubscribe sarex" to Majordomo@amsat.org



AMSAT Top AMSAT Home